Location: Ferintosh
(52.7647°N, 112.9692°W)
Time: 23:20:27
(UTC+00:00)

A-11 Canister half - Pass Details

Date: 19 May 2024
Orbit: 1524 x 1683 km, 47.3° (Epoch: 20 June)

Event Time Altitude Azimuth Distance (km) Brightness Sun altitude
Rises 10:11:24 0° 278° (W) 4,778 11.3 -9.2°
Reaches altitude 10° 10:14:32 10° 274° (W) 3,813 10.7 -8.9°
Maximum altitude 10:23:52 53° 201° (SSW) 1,941 9.2 -8.0°
Drops below altitude 10° 10:33:27 10° 129° (SE) 3,918 11.2 -7.0°
Sets 10:36:43 0° 124° (SE) 4,917 11.8 -6.7°
